Regional Weather Roundup
Issued by NWS

Home | Current Version | Previous Version | Graphics & Text | Print | Product List | Glossary On
Versions: 1 2 3 4 5 6 7 8 9 10 11 12 13 14 15 16 17 18 19 20 21 22 23 24 25 26 27 28 29 30 31 32 33 34 35 36 37 38 39 40 41 42 43 44 45 46 47 48 49 50
000
ASUS45 KBOU 011907
RWRCO

WEATHER ROUNDUP FOR COLORADO
NATIONAL WEATHER SERVICE DENVER/BOULDER CO
1200 PM MST SUN FEB 01 2015

NOTE: "FAIR" INDICATES FEW OR NO CLOUDS BELOW 12000 FEET WITH NO
SIGNIFICANT WEATHER AND/OR OBSTRUCTIONS TO VISIBILITY.

COZ001>005-013-030-031-012000-
...NORTHWEST COLORADO...

CITY           SKY/WX    TMP DP  RH WIND       PRES   REMARKS
CRAIG          SUNNY     31  17  56 W10       30.20S WCI  22
HAYDEN         SUNNY     25  16  68 SW5       30.18R WCI  19
MEEKER         SUNNY     27  17  66 CALM      30.19S
MOUNT WERNER   NOT AVBL
STEAMBOAT SPGS SUNNY     28  15  58 S5        30.16S WCI  22
WALDEN         CLOUDY    21  14  73 N13       30.11S WCI   9
$$

COZ006>008-011-012000-
...WEST CENTRAL VALLEYS...

CITY           SKY/WX    TMP DP  RH WIND       PRES   REMARKS
GRAND JUNCTION SUNNY     41  29  62 CALM      30.19F
MONTROSE       SUNNY     40  30  67 CALM      30.20F
EAGLE          SUNNY     34  14  44 CALM      30.17F
RIFLE          SUNNY     34  21  59 W3        30.19F
DELTA          SUNNY     42  31  65 CALM      30.20F
NUCLA          SUNNY     37  30  75 NW3       30.22F
$$

COZ017>023-064>068-012000-
...SOUTHWEST COLORADO...

CITY           SKY/WX    TMP DP  RH WIND       PRES   REMARKS
DURANGO        MOSUNNY   33  25  72 VRB5      30.14S WCI  29
CORTEZ         SUNNY     46  14  27 NW12G21   30.14F
PAGOSA SPRINGS CLOUDY    33  26  72 SW3       30.13F
TELLURIDE      SUNNY     33  -9  15 N6G17     30.18F WCI  28
WOLF CREEK PAS SUNNY     21  -4  33 N6G17     30.14F WCI  14
$$

COZ009-010-012-014-032>034-037-058>063-012000-
...CENTRAL COLORADO...

CITY           SKY/WX    TMP DP  RH WIND       PRES   REMARKS
ASPEN          MOSUNNY   30   3  31 CALM      30.14F
BUENA VISTA    MOSUNNY   34   5  29 SE10      30.02F WCI  26
COPPER MTN     SUNNY     14  -4  44 W25G47    30.02S HAZE    WCI  -5
BERTHOUD PASS  NOT AVBL
COTTONWOOD PAS MOSUNNY   32 -17  11 NW7G32    30.02S WCI  26
GUNNISON       PTSUNNY   34   9  35 W9        30.15S WCI  26
KREMMLING      SUNNY     32   3  29 NW13G21   30.12F WCI  22
LEADVILLE      SUNNY     20  -1  40 NW16G29   30.05R WCI   6
SALIDA         MOSUNNY   37   7  29 CALM      30.10F
SUNLIGHT       MOSUNNY   21  10  63 CALM        N/A
WILKERSON PASS MOSUNNY   18  -6  35 NW9G25    30.01S WCI   6
$$

COZ069>075-012000-
...SAN LUIS VALLEY/SANGRE DE CRISTO MOUNTAINS...

CITY           SKY/WX    TMP DP  RH WIND       PRES   REMARKS
ALAMOSA        SUNNY     30  18  60 SE7       30.09F WCI  23
LA VETA PASS   SUNNY     23  16  74 SW7       30.03S WCI  15
SAGUACHE       SUNNY     32   9  37 N18G28    30.08F WCI  20
$$

COZ035-036-038>040-012000-
...NORTHERN COLORADO FRONT RANGE...

CITY           SKY/WX    TMP DP  RH WIND       PRES   REMARKS
DENVER INTL AP CLOUDY    22  17  81 E8        30.16F WCI  12
DMNS CITY PARK   N/A     24  22  91 SE6       30.15F WCI  17
AURORA         PTSUNNY   21  16  82 E3        30.15F
FRONT RANGE AP NOT AVBL
ERIE MUNI ARPT FLURRIES  26  20  77 SE6       30.17F WCI  19
BOULDER MUN AP LGT RAIN  28  21  74 CALM      30.15F
CENTENNIAL     FLURRIES  21  17  84 CALM      30.13F
BROOMFIELD     PTSUNNY   25  19  80 E6        30.15F WCI  18
FORT COLLINS   PTSUNNY   28  21  74 S8        30.18S WCI  20
LONGMONT       CLOUDY    31  20  63 SE5       30.19F WCI  27
$$

COZ041-046-047-076>085-087-088-012000-
...PIKES PEAK/PALMER DIVIDE AND SOUTHERN FOOTHILLS...

CITY           SKY/WX    TMP DP  RH WIND       PRES   REMARKS
COLO. SPRINGS  PTSUNNY   29  18  63 VRB3      30.10F
A. F. ACADEMY  SUNNY     27  15  62 NE9       30.08F WCI  18
ELLICOTT       SUNNY    N/A N/A N/A N15       30.10F
FALCON         SUNNY     26  14  60 N8        30.09F WCI  17
FORT CARSON    MOSUNNY   30  19  62 S8        30.10F WCI  23
LIMON          MOSUNNY   20  14  77 N16       30.15F WCI   6
MONUMENT HILL  LGT SNOW  23  14  68 W5        30.07F WCI  17
TRINIDAD       CLOUDY    27  22  81 E9        30.12F WCI  18
$$

COZ042>045-048>051-090-091-012000-
...NORTHEAST COLORADO...

CITY           SKY/WX    TMP DP  RH WIND       PRES   REMARKS
GREELEY ARPT   CLOUDY    27  12  54 E10       30.18S WCI  17
AKRON          LGT SNOW  17  13  84 N8        30.19S FOG     WCI   7
BURLINGTON     CLOUDY    19  11  70 N24G33    30.19F WCI   2
WRAY           CLOUDY    17  11  78 NW20      30.27S WCI   0
STERLING       PTSUNNY   25  14  63 N17G23    30.22S WCI  11
HOLYOKE        NOT AVBL
FORT MORGAN    PTSUNNY   27  11  51 N22G29    30.19F WCI  13
$$

COZ086-089-092>099-012000-
...SOUTHEAST COLORADO...

CITY           SKY/WX    TMP DP  RH WIND       PRES   REMARKS
PUEBLO         PTSUNNY   32  22  66 NE6       30.16F WCI  26
LA JUNTA       PTSUNNY   36  19  50 NE9G17    30.18F
LAMAR          CLOUDY    32  19  58 N13       30.19F WCI  22
SPRINGFIELD      N/A     30  19  63 N17       30.16S WCI  18
$$


USA.gov is the U.S. government's official web portal to all federal, state and local government web resources and services.